OK1CMJ-5 Weather Reports


time (UTC)temp
F
wind
direction
speed
knots
gust
knots
rain 1hr
in
rain 24hr
in
rain mn
in
humidity
%
barometer
mb
20260504110133 76 340 1.7 7.0 0.00 0.00 0.00 10 1015.4
20260504081933 75 128 0.0 2.6 0.00 0.00 0.00 10 1016.3
20260504081033 73 332 1.7 3.5 0.00 0.00 0.00 10 1016.1
20260504080133 72 314 0.9 1.7 0.00 0.00 0.00 10 1015.9
20260504050133 50 318 0.9 2.6 0.00 0.00 0.00 60 1015.7
20260504044333 50 314 0.0 0.9 0.00 0.00 0.00 62 1015.6
20260504042533 47 314 0.0 0.9 0.00 0.00 0.00 64 1015.6
20260504040733 44 0 0.0 0.0 0.00 0.00 0.00 61 1015.5
20260504035833 44 0 0.0 0.0 0.00 0.00 0.00 59 1015.3
20260504034933 44 0 0.0 0.0 0.00 0.00 0.00 58 1015.4
20260504034036 44 0 0.0 0.0 0.00 0.00 0.00 57 1015.3
20260504032233 44 325 0.0 1.7 0.00 0.00 0.00 56 1015.3
20260504031333 44 312 0.0 1.7 0.00 0.00 0.00 56 1015.3
20260504025533 44 1 0.0 0.9 0.00 0.00 0.00 54 1015.2
20260504023733 45 1 0.0 1.7 0.00 0.00 0.00 53 1015.3
20260504022833 46 1 0.0 1.7 0.00 0.00 0.00 53 1015.3
20260504021933 46 324 0.0 1.7 0.00 0.00 0.00 53 1015.2
20260504021033 45 301 0.0 1.7 0.00 0.00 0.00 52 1015.2
20260504020133 45 314 0.0 0.9 0.00 0.00 0.00 50 1015.2
20260504013433 46 314 0.0 1.7 0.00 0.00 0.00 47 1015.3
20260504012533 46 314 0.0 0.9 0.00 0.00 0.00 47 1015.2
20260504011633 47 314 0.0 0.9 0.00 0.00 0.00 46 1015.2
20260504010733 47 315 0.0 0.9 0.00 0.00 0.00 46 1014.9
20260504005833 48 323 0.0 0.9 0.00 0.00 0.00 45 1014.9
20260504004033 48 292 0.0 1.7 0.00 0.00 0.00 45 1014.8
20260504003133 48 298 0.0 1.7 0.00 0.00 0.00 44 1014.9
20260504002233 48 314 0.0 0.9 0.00 0.00 0.00 42 1014.7
20260504001333 49 314 0.0 0.9 0.00 0.00 0.00 42 1014.7
20260504000433 49 314 0.0 0.9 0.00 0.00 0.00 42 1014.7
20260503235533 49 314 0.0 1.7 0.00 0.00 0.00 42 1014.8
20260503234633 50 314 0.0 1.7 0.00 0.00 0.00 42 1014.7
20260503233733 50 314 0.0 1.7 0.00 0.00 0.00 41 1014.8
20260503232833 50 314 0.0 0.9 0.00 0.00 0.00 40 1014.9
20260503231933 50 314 0.0 0.9 0.00 0.00 0.00 40 1014.9
20260503231033 50 315 0.0 0.9 0.00 0.00 0.00 39 1014.9
20260503225233 50 314 0.0 0.9 0.00 0.00 0.00 38 1014.8
20260503223433 51 314 0.0 1.7 0.00 0.00 0.00 37 1014.9
20260503222532 51 314 0.0 1.7 0.00 0.00 0.00 37 1015.0
20260503215833 52 225 0.0 1.7 0.00 0.00 0.00 35 1014.9
20260503214933 52 225 0.9 1.7 0.00 0.00 0.00 34 1015.0
20260503214032 52 228 0.0 1.7 0.00 0.00 0.00 34 1014.9
20260503213132 52 244 0.0 1.7 0.00 0.00 0.00 33 1014.9
20260503212232 52 225 0.0 1.7 0.00 0.00 0.00 33 1014.9
20260503211332 53 225 0.0 1.7 0.00 0.00 0.00 31 1014.9
20260503210433 53 0 0.0 0.0 0.00 0.00 0.00 25 1015.0
20260503205532 54 225 0.0 1.7 0.00 0.00 0.00 25 1014.8
20260503203733 55 248 0.0 1.7 0.00 0.00 0.00 23 1015.0
20260503202832 55 227 0.9 1.7 0.00 0.00 0.00 22 1015.0
20260503201933 56 261 0.0 0.9 0.00 0.00 0.00 17 1014.8
20260503201032 57 248 0.0 1.7 0.00 0.00 0.00 16 1015.0
20260503200133 57 245 0.0 1.7 0.00 0.00 0.00 14 1015.1
20260503195232 58 239 0.0 1.7 0.00 0.00 0.00 14 1015.2
20260503194333 59 1 0.0 0.9 0.00 0.00 0.00 11 1015.4
20260503193433 60 305 0.0 1.7 0.00 0.00 0.00 11 1015.2
20260503192532 61 179 0.0 1.7 0.00 0.00 0.00 10 1015.2
20260503191632 62 221 0.0 1.7 0.00 0.00 0.00 10 1015.1
20260503190733 63 228 0.9 2.6 0.00 0.00 0.00 10 1015.2
20260503184932 62 237 0.0 1.7 0.00 0.00 0.00 10 1015.0
20260503184033 64 219 0.0 1.7 0.00 0.00 0.00 10 1014.8
20260503183132 65 286 0.0 1.7 0.00 0.00 0.00 10 1014.8
20260503182232 67 314 0.0 2.6 0.00 0.00 0.00 10 1014.7
20260503181333 68 307 0.9 3.5 0.00 0.00 0.00 10 1014.5
20260503174633 70 318 0.9 1.7 0.00 0.00 0.00 10 1014.2
20260503173732 71 312 0.0 1.7 0.00 0.00 0.00 10 1014.2
20260503172832 72 1 0.0 1.7 0.00 0.00 0.00 10 1014.2
20260503171032 74 270 0.0 0.9 0.00 0.00 0.00 10 1014.2
20260503170132 75 200 0.0 2.6 0.00 0.00 0.00 10 1014.1
20260503150433 84 129 0.9 3.5 0.00 0.00 0.00 10 1014.7
20260503140132 83 133 1.7 5.2 0.00 0.00 0.00 10 1015.6